Location: Boiro
(42.6475°N, 8.8834°W)
Time: 23:47:03
(UTC+01:00)

A-11 Canister half - Pass Details

Date: 07 December 2021
Orbit: 1516 x 1684 km, 47.2° (Epoch: 18 January)

Event Time Altitude Azimuth Distance (km) Brightness Sun altitude
Rises 13:16:05 0° 295° (WNW) 4,868 11.4 24.6°
Reaches altitude 10° 13:19:11 10° 294° (WNW) 3,898 11.0 24.7°
Maximum altitude 13:29:11 74° 211° (SSW) 1,731 10.0 24.7°
Drops below altitude 10° 13:39:18 10° 129° (SE) 3,940 11.7 24.6°
Sets 13:42:28 0° 128° (SE) 4,922 12.1 24.6°
